Regional Weather Roundup
Issued by NWS

Home | Current Version | Previous Version | Text Only | Print | Product List | Glossary On
Versions: 1 2 3 4 5 6 7 8 9 10 11 12 13 14 15 16 17 18 19 20 21 22 23 24 25 26 27 28 29 30 31 32 33 34 35 36 37 38 39 40 41 42 43 44 45 46 47 48 49 50
000
ASUS44 KOUN 300700
RWROK

WEATHER ROUNDUP FOR OKLAHOMA
NATIONAL WEATHER SERVICE NORMAN OK
200 AM CDT SAT MAY 30 2015

NOTE: "FAIR" INDICATES FEW OR NO CLOUDS BELOW 12,000 FEET WITH NO
      SIGNIFICANT WEATHER AND/OR OBSTRUCTIONS TO VISIBILITY.

OKZ001>007-009>012-014-015-017-300800-
NORTHWEST OKLAHOMA AND THE PANHANDLE

CITY           SKY/WX    TMP DP  RH WIND       PRES   REMARKS
GAGE           PTCLDY    61  56  83 N16G23    30.13R
GUYMON         CLOUDY    58  52  80 N12       30.22R
$$

OKZ016-021>023-033>039-044-045-300800-
SOUTHWEST OKLAHOMA

CITY           SKY/WX    TMP DP  RH WIND       PRES   REMARKS
LAWTON/REGL    PTCLDY    68  65  90 CALM      30.00F
LAWTON/FT SILL PTCLDY    68  67  98 N5        29.99F
FREDERICK      MOCLDY    68  66  93 N5        29.97F
CLINTON        MOCLDY    66  62  87 N8        30.05F
HOBART         MOCLDY    65  63  93 N6        30.02F
ALTUS AFB      CLOUDY    67  65  95 NW6       29.98F
$$

OKZ018>020-024>031-300800-
CENTRAL OKLAHOMA

CITY           SKY/WX    TMP DP  RH WIND       PRES   REMARKS
OKLAHOMA CITY  PTCLDY    66  63  90 CALM      30.01F
OKC/WILEY POST CLEAR     64  62  93 CALM      30.01F
STILLWATER     CLEAR     62  62 100 CALM      30.00F FOG
GUTHRIE        PTCLDY    66  64  93 CALM      30.01S
$$

OKZ008-013-054>072-300800-
NORTHEAST OKLAHOMA

CITY           SKY/WX    TMP DP  RH WIND       PRES   REMARKS
TULSA          MOCLDY    64  63  96 W3        29.97F
TULSA/JONES    PTCLDY    64  63  96 CALM      29.99S FOG
PONCA CITY     MOCLDY    66  65  96 NW7       30.01R
BARTLESVILLE   CLOUDY    60  60 100 CALM      29.99S
MUSKOGEE       CLOUDY    65  63  93 W5        30.00R
$$

OKZ032-040>043-046>053-073>077-300800-
SOUTH CENTRAL/SOUTHEAST OKLAHOMA

CITY           SKY/WX    TMP DP  RH WIND       PRES   REMARKS
MCALESTER      MOCLDY    65  63  93 NW3       30.00S
$$



USA.gov is the U.S. government's official web portal to all federal, state and local government web resources and services.